Terminal Aerodrome Forecast
Issued by NWS Cleveland, OH

Home | Current Version | Previous Version | Graphics & Text | Print | Product List | Glossary On
Versions: 1 2 3 4 5 6 7 8 9 10 11 12 13 14 15 16 17 18
000
FTUS41 KCLE 260313 AAA
TAFTOL
TAF AMD
KTOL 260313Z 2603/2624 11005KT P6SM BKN250
     FM260500 18006KT P6SM VCSH BKN100
     FM260800 21008KT 6SM -SHRA OVC035
     FM261200 27012KT 5SM -SHRA OVC025
     FM261600 27012G20KT P6SM BKN100
     FM262200 27010KT P6SM SCT100=

USA.gov is the U.S. government's official web portal to all federal, state and local government web resources and services.